Weather History for Mora, MN

Change the Weather History Date:

Saturday, November 26, 2011

  Actual Average Record
Temperature  
Mean Temperature 38 °F -  
Max Temperature 44 °F 32 °F 57 °F (1998)
Min Temperature 33 °F 14 °F -16 °F (1977)
Degree Days  
Heating Degree Days 26    
Moisture  
Dew Point 36 °F    
Average Humidity 90    
Maximum Humidity 100    
Minimum Humidity 81    
Precipitation  
Precipitation 0.02 in - - ()
Sea Level Pressure  
Sea Level Pressure 29.83 in    
Wind  
Wind Speed 8 mph (North)    
Max Wind Speed 20 mph    
Max Gust Speed 33 mph    
Visibility 7 miles    
Events Rain , Snow    
Averages and records for this station are not official NWS values.
T = Trace of Precipitation, MM = Missing Value Source: NWS Daily Summary

Daily Weather History Graph

Daily Weather History Graph

Search for Another Location

Airport:

Trip Planner

Search our weather history database for the weather conditions in past years. The results will help you decide how hot, cold, wet, or windy it might be!

Date:

Astronomy

Nov. 26, 2011 Rise Set
Actual Time 7:27 AM CST 4:32 PM CST
Civil Twilight 6:54 AM CST 5:05 PM CST
Nautical Twilight 6:17 AM CST 5:42 PM CST
Astronomical Twilight 5:41 AM CST 6:18 PM CST
Moon 9:02 AM CST (11/26) 6:01 PM CST (11/26)
Length of Visible Light 10h 11m
Length of Day
9h 04m
Waxing Crescent, 3% of the Moon is Illuminated
Nov 26
Waxing Crescent
Dec 2
First Quarter
Dec 10
Full
Dec 17
Last Quarter
Dec 24
New

Hourly Weather History & Observations

Time (CST) Temp. Windchill Dew Point Humidity Pressure Visibility Wind Dir Wind Speed Gust Speed Precip Events Conditions
12:35 AM 44.6 °F 42.2 °F 42.8 °F 93% 29.69 in 5.0 mi East 4.6 mph - N/A   Overcast
12:55 AM 44.6 °F 41.4 °F 42.8 °F 93% 29.68 in 5.0 mi East 5.8 mph - N/A   Overcast
1:15 AM 44.6 °F 42.2 °F 42.8 °F 93% 29.67 in 5.0 mi East 4.6 mph - N/A   Overcast
1:35 AM 44.6 °F 41.4 °F 42.8 °F 93% 29.67 in 5.0 mi East 5.8 mph - N/A   Overcast
1:54 AM 44.6 °F 40.7 °F 42.8 °F 93% 29.67 in 5.0 mi East 6.9 mph - N/A   Overcast
2:15 AM 44.6 °F 41.4 °F 42.8 °F 93% 29.68 in 5.0 mi ESE 5.8 mph - N/A   Overcast
2:35 AM 44.6 °F 41.4 °F 42.8 °F 93% 29.68 in 5.0 mi East 5.8 mph - N/A   Overcast
2:55 AM 44.6 °F 43.1 °F 42.8 °F 93% 29.69 in 5.0 mi East 3.5 mph - N/A   Overcast
3:15 AM 44.6 °F - 42.8 °F 93% 29.70 in 4.0 mi Calm Calm - N/A   Overcast
3:34 AM 44.6 °F 42.2 °F 42.8 °F 93% 29.69 in 4.0 mi ENE 4.6 mph - N/A   Overcast
3:55 AM 44.6 °F 43.1 °F 42.8 °F 93% 29.70 in 4.0 mi ENE 3.5 mph - N/A   Overcast
4:15 AM 44.6 °F 43.1 °F 42.8 °F 93% 29.70 in 3.0 mi ENE 3.5 mph - N/A Rain Light Rain
4:34 AM 44.6 °F 43.1 °F 42.8 °F 93% 29.70 in 2.5 mi NE 3.5 mph - N/A Rain Light Rain
4:55 AM 44.6 °F 41.4 °F 42.8 °F 93% 29.69 in 2.0 mi ENE 5.8 mph - 0.01 in Rain Rain
5:15 AM 44.6 °F 39.7 °F 42.8 °F 93% 29.67 in 2.0 mi East 9.2 mph - N/A   Drizzle
5:35 AM 44.6 °F 40.2 °F 42.8 °F 93% 29.68 in 3.0 mi East 8.1 mph - 0.01 in   Light Drizzle
6:15 AM 44.6 °F - 44.6 °F 100% 29.69 in 3.0 mi Calm Calm - N/A   Overcast
6:35 AM 42.8 °F 41.1 °F 41.0 °F 93% 29.70 in 3.0 mi North 3.5 mph - N/A   Overcast
6:55 AM 41.0 °F 39.0 °F 41.0 °F 100% 29.72 in 2.0 mi North 3.5 mph - N/A   Overcast
7:14 AM 41.0 °F - 39.2 °F 93% 29.73 in 1.8 mi Calm Calm - N/A   Drizzle
7:35 AM 39.2 °F - 37.4 °F 93% 29.74 in 2.0 mi Calm Calm - N/A   Drizzle
7:55 AM 39.2 °F - 37.4 °F 93% 29.75 in 2.0 mi Calm Calm - N/A   Light Drizzle
8:15 AM 39.2 °F - 37.4 °F 93% 29.75 in 3.0 mi Calm Calm - N/A   Overcast
8:34 AM 37.4 °F - 37.4 °F 100% 29.76 in 4.0 mi Calm Calm - N/A   Overcast
9:15 AM 37.4 °F 34.9 °F 35.6 °F 93% 29.76 in 4.0 mi North 3.5 mph - N/A   Light Drizzle
9:35 AM 37.4 °F 31.4 °F 35.6 °F 93% 29.78 in 5.0 mi NNW 8.1 mph - N/A   Light Drizzle
9:55 AM 37.4 °F 30.3 °F 35.6 °F 93% 29.79 in 7.0 mi NNW 10.4 mph - N/A   Overcast
10:15 AM 37.4 °F 32.1 °F 35.6 °F 93% 29.79 in 10.0 mi NNW 6.9 mph - N/A   Overcast
10:35 AM 37.4 °F 32.8 °F 35.6 °F 93% 29.79 in 10.0 mi North 5.8 mph - N/A   Overcast
10:55 AM 37.4 °F 32.1 °F 35.6 °F 93% 29.80 in 10.0 mi North 6.9 mph - N/A   Overcast
11:15 AM 37.4 °F 30.3 °F 35.6 °F 93% 29.80 in 10.0 mi NNW 10.4 mph 17.3 mph N/A   Overcast
11:35 AM 37.4 °F 30.3 °F 35.6 °F 93% 29.81 in 10.0 mi NNW 10.4 mph - N/A   Overcast
11:55 AM 37.4 °F 29.8 °F 35.6 °F 93% 29.81 in 10.0 mi NNW 11.5 mph 20.7 mph N/A   Overcast
12:15 PM 37.4 °F 29.8 °F 33.8 °F 87% 29.82 in 10.0 mi NNW 11.5 mph 19.6 mph N/A   Overcast
12:34 PM 35.6 °F 25.9 °F 33.8 °F 93% 29.83 in 10.0 mi NNW 16.1 mph 21.9 mph N/A   Overcast
12:55 PM 35.6 °F 25.9 °F 32.0 °F 87% 29.83 in 10.0 mi NNW 16.1 mph 25.3 mph N/A   Overcast
1:15 PM 35.6 °F 27.1 °F 32.0 °F 87% 29.84 in 10.0 mi NNW 12.7 mph 24.2 mph N/A   Overcast
1:55 PM 35.6 °F 25.5 °F 32.0 °F 87% 29.86 in 10.0 mi NNW 17.3 mph 23.0 mph N/A   Overcast
2:15 PM 35.6 °F 26.6 °F 32.0 °F 87% 29.87 in 10.0 mi NW 13.8 mph 25.3 mph N/A   Overcast
2:35 PM 35.6 °F 24.8 °F 32.0 °F 87% 29.87 in 10.0 mi NNW 19.6 mph 27.6 mph N/A   Overcast
2:55 PM 35.6 °F 26.6 °F 32.0 °F 87% 29.89 in 10.0 mi NW 13.8 mph 25.3 mph N/A   Overcast
3:14 PM 35.6 °F 25.5 °F 32.0 °F 87% 29.90 in 10.0 mi NW 17.3 mph 27.6 mph N/A   Overcast
3:35 PM 35.6 °F 25.9 °F 32.0 °F 87% 29.91 in 10.0 mi NNW 16.1 mph 24.2 mph N/A   Overcast
3:55 PM 35.6 °F 26.2 °F 32.0 °F 87% 29.93 in 10.0 mi NNW 15.0 mph 24.2 mph N/A   Light Drizzle
4:14 PM 35.6 °F 27.5 °F 32.0 °F 87% 29.94 in 10.0 mi NNW 11.5 mph 20.7 mph N/A   Light Drizzle
4:35 PM 35.6 °F 26.6 °F 32.0 °F 87% 29.95 in 10.0 mi NNW 13.8 mph 23.0 mph N/A   Overcast
4:54 PM 33.8 °F 23.2 °F 30.2 °F 87% 29.97 in 10.0 mi NNW 17.3 mph 24.2 mph N/A   Overcast
5:15 PM 33.8 °F 23.9 °F 30.2 °F 87% 29.97 in 10.0 mi NNW 15.0 mph 23.0 mph N/A   Overcast
5:35 PM 33.8 °F 23.5 °F 30.2 °F 87% 29.98 in 10.0 mi NNW 16.1 mph 26.5 mph N/A   Overcast
6:15 PM 33.8 °F 24.3 °F 30.2 °F 87% 29.99 in 7.0 mi NNW 13.8 mph - N/A Snow Light Snow
6:35 PM 33.8 °F 23.2 °F 30.2 °F 87% 30.00 in 10.0 mi NNW 17.3 mph - N/A Snow Light Snow
6:55 PM 33.8 °F 23.9 °F 30.2 °F 87% 30.01 in 10.0 mi NNW 15.0 mph 25.3 mph N/A   Overcast
7:15 PM 33.8 °F 24.3 °F 30.2 °F 87% 30.01 in 10.0 mi NNW 13.8 mph 20.7 mph N/A   Overcast
7:35 PM 33.8 °F 24.3 °F 30.2 °F 87% 30.01 in 10.0 mi NNW 13.8 mph 21.9 mph N/A   Overcast
8:15 PM 33.8 °F 22.8 °F 28.4 °F 81% 30.02 in 10.0 mi NNW 18.4 mph 27.6 mph N/A   Overcast
8:34 PM 33.8 °F 24.3 °F 28.4 °F 81% 30.03 in 10.0 mi NNW 13.8 mph 24.2 mph N/A   Overcast
9:15 PM 33.8 °F 25.3 °F 30.2 °F 87% 30.04 in 10.0 mi NNW 11.5 mph - N/A   Overcast
10:15 PM 33.8 °F 22.5 °F 28.4 °F 81% 30.05 in 10.0 mi NNW 19.6 mph 33.4 mph N/A   Overcast
10:35 PM 33.8 °F 22.8 °F 28.4 °F 81% 30.05 in 10.0 mi NNW 18.4 mph 29.9 mph N/A   Overcast
10:55 PM 33.8 °F 24.3 °F 28.4 °F 81% 30.06 in 10.0 mi NNW 13.8 mph 24.2 mph N/A   Overcast
11:14 PM 33.8 °F 23.5 °F 28.4 °F 81% 30.06 in 10.0 mi NNW 16.1 mph 21.9 mph N/A   Overcast
11:35 PM 33.8 °F 25.8 °F 28.4 °F 81% 30.06 in 10.0 mi North 10.4 mph 19.6 mph N/A   Overcast